| time (UTC) | temp C | wind direction | speed KPH | gust KPH | rain 1hr cm | rain 24hr cm | rain mn cm | humidity % | barometer mb |
| 20260507070528 | 3 | 287 | 6.4 | 12.9 | 0.00 | 0.71 | 0.00 | 91 | 1009.4 |
| 20260507070031 | 3 | 290 | 4.8 | 9.7 | 0.00 | 0.71 | 0.00 | 91 | 1009.5 |
| 20260507065529 | 3 | 270 | 1.6 | 4.8 | 0.00 | 0.71 | 0.00 | 91 | 1009.6 |
| 20260507065027 | 3 | 293 | 0.0 | 6.4 | 0.00 | 0.71 | 0.00 | 91 | 1009.6 |
| 20260507064526 | 3 | 293 | 0.0 | 12.9 | 0.00 | 0.71 | 0.00 | 91 | 1009.6 |
| 20260507064026 | 3 | 285 | 4.8 | 12.9 | 0.00 | 0.71 | 0.00 | 91 | 1009.4 |
| 20260507063526 | 3 | 288 | 4.8 | 12.9 | 0.00 | 0.71 | 0.00 | 91 | 1009.3 |
| 20260507063036 | 3 | 294 | 6.4 | 14.5 | 0.00 | 0.71 | 0.00 | 91 | 1009.3 |
| 20260507062524 | 3 | 308 | 6.4 | 20.9 | 0.00 | 0.71 | 0.00 | 91 | 1009.2 |
| 20260507062024 | 3 | 295 | 11.3 | 20.9 | 0.00 | 0.71 | 0.00 | 91 | 1009.0 |
| 20260507061526 | 3 | 269 | 11.3 | 27.4 | 0.00 | 0.71 | 0.00 | 91 | 1009.1 |
| 20260507061023 | 3 | 312 | 17.7 | 30.6 | 0.00 | 0.71 | 0.00 | 91 | 1009.3 |
| 20260507060522 | 3 | 280 | 17.7 | 32.2 | 0.00 | 0.71 | 0.00 | 91 | 1009.3 |
| 20260507060035 | 3 | 299 | 20.9 | 32.2 | 0.00 | 0.71 | 0.00 | 91 | 1009.3 |
| 20260507055520 | 4 | 278 | 14.5 | 22.5 | 0.00 | 0.71 | 0.00 | 92 | 1009.2 |
| 20260507055018 | 4 | 331 | 8.0 | 16.1 | 0.00 | 0.71 | 0.00 | 92 | 1009.1 |
| 20260507054517 | 4 | 306 | 4.8 | 11.3 | 0.00 | 0.71 | 0.00 | 92 | 1009.1 |
| 20260507054017 | 5 | 313 | 4.8 | 17.7 | 0.00 | 0.71 | 0.00 | 92 | 1009.2 |
| 20260507053517 | 5 | 314 | 6.4 | 17.7 | 0.00 | 0.71 | 0.00 | 92 | 1009.2 |
| 20260507053016 | 5 | 309 | 4.8 | 16.1 | 0.00 | 0.71 | 0.00 | 92 | 1009.2 |
| 20260507052515 | 5 | 313 | 4.8 | 9.7 | 0.00 | 0.71 | 0.00 | 92 | 1009.2 |
| 20260507052014 | 5 | 294 | 1.6 | 12.9 | 0.00 | 0.71 | 0.00 | 92 | 1009.4 |
| 20260507051514 | 5 | 263 | 4.8 | 12.9 | 0.00 | 0.71 | 0.00 | 92 | 1009.3 |
| 20260507051015 | 5 | 298 | 1.6 | 11.3 | 0.00 | 0.71 | 0.00 | 92 | 1009.3 |
| 20260507050514 | 5 | 234 | 1.6 | 6.4 | 0.00 | 0.71 | 0.00 | 92 | 1009.4 |
| 20260507050012 | 5 | 290 | 1.6 | 6.4 | 0.00 | 0.71 | 0.00 | 92 | 1009.4 |
| 20260507045511 | 5 | 300 | 1.6 | 6.4 | 0.00 | 0.71 | 0.00 | 92 | 1009.3 |
| 20260507045011 | 5 | 302 | 1.6 | 6.4 | 0.00 | 0.71 | 0.00 | 92 | 1009.1 |
| 20260507044514 | 5 | 301 | 0.0 | 4.8 | 0.00 | 0.71 | 0.00 | 93 | 1009.2 |
| 20260507044009 | 5 | 309 | 0.0 | 6.4 | 0.00 | 0.71 | 0.00 | 93 | 1009.1 |
| 20260507043508 | 5 | 310 | 3.2 | 6.4 | 0.00 | 0.71 | 0.00 | 93 | 1009.0 |
| 20260507043008 | 5 | 297 | 1.6 | 3.2 | 0.00 | 0.71 | 0.00 | 93 | 1008.9 |
| 20260507042511 | 5 | 297 | 0.0 | 3.2 | 0.00 | 0.71 | 0.00 | 92 | 1009.0 |
| 20260507042006 | 5 | 297 | 0.0 | 1.6 | 0.00 | 0.71 | 0.00 | 92 | 1009.0 |
| 20260507041506 | 5 | 297 | 0.0 | 1.6 | 0.00 | 0.71 | 0.00 | 93 | 1009.1 |
| 20260507041005 | 4 | 297 | 0.0 | 4.8 | 0.00 | 0.71 | 0.00 | 93 | 1008.9 |
| 20260507040504 | 4 | 297 | 1.6 | 6.4 | 0.00 | 0.71 | 0.00 | 93 | 1008.9 |
| 20260507040006 | 4 | 297 | 1.6 | 6.4 | 0.00 | 0.71 | 0.00 | 93 | 1008.9 |
| 20260507035502 | 5 | 286 | 0.0 | 4.8 | 0.00 | 0.71 | 0.71 | 93 | 1009.2 |
| 20260507035003 | 5 | 290 | 0.0 | 3.2 | 0.00 | 0.71 | 0.71 | 93 | 1009.3 |
| 20260507034506 | 5 | 290 | 0.0 | 8.0 | 0.00 | 0.71 | 0.71 | 93 | 1009.3 |
| 20260507034004 | 4 | 290 | 1.6 | 8.0 | 0.00 | 0.71 | 0.71 | 93 | 1009.1 |
| 20260507033504 | 4 | 284 | 3.2 | 8.0 | 0.00 | 0.71 | 0.71 | 93 | 1009.0 |
| 20260507033002 | 4 | 306 | 0.0 | 3.2 | 0.00 | 0.71 | 0.71 | 93 | 1009.1 |
| 20260507032501 | 4 | 306 | 0.0 | 6.4 | 0.00 | 0.71 | 0.71 | 93 | 1009.0 |
| 20260507032000 | 4 | 307 | 1.6 | 6.4 | 0.00 | 0.71 | 0.71 | 93 | 1008.9 |
| 20260507031502 | 4 | 312 | 1.6 | 6.4 | 0.00 | 0.71 | 0.71 | 93 | 1008.9 |
| 20260507031001 | 4 | 290 | 1.6 | 4.8 | 0.00 | 0.71 | 0.71 | 93 | 1009.0 |
| 20260507030501 | 4 | 293 | 0.0 | 4.8 | 0.00 | 0.71 | 0.71 | 93 | 1008.9 |
| 20260507030101 | 5 | 292 | 0.0 | 4.8 | 0.00 | 0.71 | 0.71 | 93 | 1008.9 |
| 20260507025602 | 5 | 299 | 0.0 | 3.2 | 0.00 | 0.71 | 0.71 | 93 | 1009.2 |
| 20260507025100 | 5 | 299 | 0.0 | 6.4 | 0.00 | 0.71 | 0.71 | 93 | 1009.1 |
| 20260507024600 | 5 | 299 | 3.2 | 6.4 | 0.00 | 0.71 | 0.71 | 93 | 1008.9 |
| 20260507024059 | 5 | 267 | 0.0 | 6.4 | 0.00 | 0.71 | 0.71 | 93 | 1009.1 |
| 20260507023601 | 5 | 294 | 1.6 | 6.4 | 0.00 | 0.71 | 0.71 | 93 | 1009.1 |
| 20260507023059 | 5 | 273 | 1.6 | 8.0 | 0.00 | 0.71 | 0.71 | 93 | 1009.3 |
| 20260507022601 | 5 | 301 | 1.6 | 6.4 | 0.00 | 0.71 | 0.71 | 93 | 1009.1 |
| 20260507022059 | 5 | 299 | 0.0 | 11.3 | 0.03 | 0.71 | 0.71 | 93 | 1009.1 |
| 20260507021600 | 5 | 293 | 3.2 | 9.7 | 0.03 | 0.71 | 0.71 | 93 | 1009.2 |
| 20260507021058 | 5 | 265 | 0.0 | 6.4 | 0.03 | 0.71 | 0.71 | 93 | 1009.5 |
| 20260507020600 | 5 | 265 | 0.0 | 6.4 | 0.03 | 0.71 | 0.71 | 93 | 1009.4 |
| 20260507020059 | 5 | 246 | 0.0 | 8.0 | 0.03 | 0.71 | 0.71 | 93 | 1009.3 |
| 20260507015557 | 5 | 270 | 0.0 | 6.4 | 0.03 | 0.71 | 0.71 | 93 | 1009.5 |
| 20260507015057 | 5 | 285 | 1.6 | 8.0 | 0.03 | 0.71 | 0.71 | 93 | 1009.5 |
| 20260507014602 | 5 | 299 | 1.6 | 8.0 | 0.03 | 0.71 | 0.71 | 93 | 1009.4 |
| 20260507014057 | 5 | 227 | 0.0 | 4.8 | 0.03 | 0.71 | 0.71 | 93 | 1009.5 |
| 20260507013556 | 5 | 288 | 0.0 | 4.8 | 0.03 | 0.71 | 0.71 | 93 | 1009.1 |
| 20260507013116 | 5 | 288 | 0.0 | 6.4 | 0.03 | 0.71 | 0.71 | 93 | 1009.3 |
| 20260507012556 | 5 | 273 | 1.6 | 4.8 | 0.03 | 0.71 | 0.71 | 93 | 1009.3 |
| 20260507012056 | 5 | 290 | 0.0 | 6.4 | 0.00 | 0.69 | 0.69 | 93 | 1009.0 |
| 20260507011603 | 5 | 292 | 0.0 | 6.4 | 0.00 | 0.69 | 0.69 | 93 | 1009.2 |
| 20260507011054 | 5 | 281 | 0.0 | 6.4 | 0.00 | 0.69 | 0.69 | 93 | 1009.2 |
| 20260507010554 | 5 | 286 | 0.0 | 4.8 | 0.00 | 0.69 | 0.69 | 93 | 1009.3 |
| 20260507010104 | 5 | 291 | 1.6 | 4.8 | 0.00 | 0.69 | 0.69 | 93 | 1009.2 |
| 20260507005555 | 5 | 294 | 0.0 | 8.0 | 0.00 | 0.69 | 0.69 | 93 | 1009.2 |
| 20260507005053 | 5 | 294 | 1.6 | 8.0 | 0.00 | 0.69 | 0.69 | 93 | 1009.0 |
| 20260507004552 | 5 | 283 | 0.0 | 4.8 | 0.00 | 0.69 | 0.69 | 93 | 1008.9 |
| 20260507004053 | 5 | 290 | 0.0 | 4.8 | 0.00 | 0.69 | 0.69 | 93 | 1008.6 |
| 20260507003550 | 5 | 252 | 0.0 | 6.4 | 0.00 | 0.69 | 0.69 | 93 | 1008.5 |
| 20260507003049 | 5 | 295 | 0.0 | 6.4 | 0.00 | 0.69 | 0.69 | 93 | 1008.4 |
| 20260507002548 | 5 | 237 | 0.0 | 4.8 | 0.00 | 0.69 | 0.69 | 93 | 1008.4 |
| 20260507002048 | 5 | 238 | 0.0 | 9.7 | 0.00 | 0.69 | 0.69 | 93 | 1008.3 |
| 20260507001551 | 5 | 290 | 0.0 | 9.7 | 0.00 | 0.69 | 0.69 | 93 | 1008.1 |
| 20260507001047 | 5 | 273 | 4.8 | 11.3 | 0.00 | 0.69 | 0.69 | 93 | 1008.2 |
| 20260507000549 | 5 | 285 | 0.0 | 11.3 | 0.00 | 0.69 | 0.69 | 93 | 1008.4 |
| 20260507000046 | 5 | 288 | 0.0 | 16.1 | 0.00 | 0.69 | 0.69 | 93 | 1008.3 |
| 20260506235545 | 5 | 273 | 8.0 | 16.1 | 0.00 | 0.69 | 0.69 | 93 | 1008.1 |
| 20260506235044 | 5 | 287 | 4.8 | 14.5 | 0.00 | 0.69 | 0.69 | 93 | 1008.1 |
| 20260506234545 | 5 | 329 | 6.4 | 17.7 | 0.00 | 0.69 | 0.69 | 93 | 1008.1 |
| 20260506234043 | 5 | 285 | 9.7 | 17.7 | 0.00 | 0.69 | 0.69 | 93 | 1008.0 |
| 20260506233544 | 5 | 302 | 9.7 | 22.5 | 0.00 | 0.69 | 0.69 | 93 | 1007.9 |
| 20260506233055 | 5 | 290 | 9.7 | 22.5 | 0.00 | 0.69 | 0.69 | 93 | 1007.6 |
| 20260506232539 | 5 | 325 | 12.9 | 22.5 | 0.00 | 0.69 | 0.69 | 93 | 1007.4 |
| 20260506232041 | 5 | 289 | 12.9 | 19.3 | 0.00 | 0.69 | 0.69 | 93 | 1007.5 |
| 20260506231540 | 5 | 288 | 9.7 | 22.5 | 0.00 | 0.69 | 0.69 | 93 | 1007.6 |
| 20260506231039 | 5 | 262 | 8.0 | 22.5 | 0.00 | 0.69 | 0.69 | 93 | 1007.6 |
| 20260506230536 | 6 | 272 | 8.0 | 25.7 | 0.00 | 0.69 | 0.69 | 93 | 1007.4 |
| 20260506230037 | 6 | 284 | 14.5 | 25.7 | 0.00 | 0.69 | 0.69 | 93 | 1007.1 |
| 20260506225540 | 6 | 296 | 11.3 | 22.5 | 0.03 | 0.69 | 0.69 | 93 | 1007.3 |
| 20260506225038 | 6 | 311 | 12.9 | 25.7 | 0.03 | 0.69 | 0.69 | 93 | 1007.0 |
| 20260506224536 | 6 | 295 | 16.1 | 25.7 | 0.03 | 0.69 | 0.69 | 93 | 1007.0 |
| 20260506224035 | 6 | 292 | 11.3 | 24.1 | 0.03 | 0.69 | 0.69 | 93 | 1007.0 |
| 20260506223536 | 6 | 279 | 9.7 | 29.0 | 0.03 | 0.69 | 0.69 | 93 | 1007.0 |
| 20260506223034 | 6 | 297 | 11.3 | 22.5 | 0.03 | 0.69 | 0.69 | 93 | 1006.9 |
| 20260506222534 | 6 | 298 | 9.7 | 22.5 | 0.03 | 0.69 | 0.69 | 93 | 1006.9 |
| 20260506222035 | 6 | 292 | 12.9 | 24.1 | 0.03 | 0.69 | 0.69 | 93 | 1006.9 |
| 20260506221533 | 6 | 320 | 12.9 | 27.4 | 0.03 | 0.69 | 0.69 | 93 | 1006.8 |
| 20260506221032 | 6 | 285 | 14.5 | 27.4 | 0.03 | 0.69 | 0.69 | 93 | 1006.8 |
| 20260506220534 | 6 | 263 | 17.7 | 27.4 | 0.03 | 0.69 | 0.69 | 93 | 1006.8 |
| 20260506220032 | 6 | 291 | 12.9 | 30.6 | 0.03 | 0.69 | 0.69 | 93 | 1006.8 |
| 20260506215531 | 6 | 289 | 17.7 | 30.6 | 0.00 | 0.66 | 0.66 | 93 | 1006.6 |
| 20260506215031 | 6 | 296 | 14.5 | 24.1 | 0.00 | 0.66 | 0.66 | 93 | 1006.6 |
| 20260506214531 | 6 | 290 | 14.5 | 22.5 | 0.00 | 0.66 | 0.66 | 93 | 1006.5 |
| 20260506214030 | 6 | 286 | 11.3 | 24.1 | 0.00 | 0.66 | 0.66 | 93 | 1006.5 |
| 20260506213530 | 6 | 286 | 12.9 | 29.0 | 0.00 | 0.66 | 0.66 | 93 | 1006.4 |
| 20260506213030 | 6 | 281 | 14.5 | 29.0 | 0.03 | 0.66 | 0.66 | 93 | 1006.3 |
| 20260506212531 | 6 | 273 | 12.9 | 27.4 | 0.03 | 0.66 | 0.66 | 93 | 1006.2 |
| 20260506212130 | 6 | 306 | 11.3 | 22.5 | 0.03 | 0.66 | 0.66 | 93 | 1006.2 |
| 20260506211530 | 6 | 298 | 12.9 | 22.5 | 0.03 | 0.66 | 0.66 | 93 | 1006.0 |
| 20260506211029 | 6 | 285 | 11.3 | 22.5 | 0.03 | 0.66 | 0.66 | 93 | 1005.9 |
| 20260506210527 | 6 | 317 | 11.3 | 19.3 | 0.05 | 0.66 | 0.66 | 93 | 1005.9 |
| 20260506210034 | 6 | 296 | 11.3 | 19.3 | 0.05 | 0.66 | 0.66 | 93 | 1005.9 |
| 20260506205529 | 6 | 288 | 11.3 | 20.9 | 0.05 | 0.66 | 0.66 | 93 | 1005.9 |
| 20260506205027 | 6 | 296 | 9.7 | 22.5 | 0.08 | 0.66 | 0.66 | 93 | 1005.8 |
| 20260506204527 | 6 | 313 | 11.3 | 22.5 | 0.08 | 0.66 | 0.66 | 93 | 1005.6 |
| 20260506204027 | 6 | 296 | 8.0 | 17.7 | 0.08 | 0.66 | 0.66 | 93 | 1005.8 |
| 20260506203529 | 6 | 297 | 9.7 | 17.7 | 0.10 | 0.66 | 0.66 | 93 | 1005.8 |
| 20260506203027 | 6 | 303 | 8.0 | 20.9 | 0.08 | 0.64 | 0.64 | 93 | 1005.7 |
| 20260506202527 | 6 | 290 | 11.3 | 20.9 | 0.08 | 0.64 | 0.64 | 93 | 1005.7 |
| 20260506202026 | 6 | 298 | 8.0 | 16.1 | 0.08 | 0.64 | 0.64 | 93 | 1005.7 |
| 20260506201530 | 6 | 296 | 9.7 | 17.7 | 0.08 | 0.64 | 0.64 | 93 | 1005.6 |
| 20260506201027 | 6 | 302 | 9.7 | 19.3 | 0.08 | 0.64 | 0.64 | 93 | 1005.6 |
| 20260506200525 | 6 | 311 | 8.0 | 19.3 | 0.05 | 0.61 | 0.61 | 93 | 1005.6 |
| 20260506200036 | 6 | 294 | 8.0 | 14.5 | 0.05 | 0.61 | 0.61 | 93 | 1005.5 |
| 20260506195525 | 6 | 310 | 8.0 | 17.7 | 0.05 | 0.61 | 0.61 | 93 | 1005.5 |
| 20260506195027 | 6 | 278 | 9.7 | 29.0 | 0.03 | 0.58 | 0.58 | 93 | 1005.5 |
| 20260506194525 | 6 | 302 | 16.1 | 29.0 | 0.05 | 0.58 | 0.58 | 93 | 1005.5 |
| 20260506194024 | 6 | 298 | 12.9 | 24.1 | 0.05 | 0.58 | 0.58 | 93 | 1005.5 |
| 20260506193524 | 6 | 321 | 11.3 | 16.1 | 0.03 | 0.56 | 0.56 | 93 | 1005.3 |
| 20260506193027 | 6 | 306 | 9.7 | 17.7 | 0.03 | 0.56 | 0.56 | 93 | 1005.4 |
| 20260506192524 | 6 | 279 | 9.7 | 17.7 | 0.03 | 0.56 | 0.56 | 93 | 1005.2 |
| 20260506192023 | 6 | 309 | 11.3 | 17.7 | 0.03 | 0.56 | 0.56 | 93 | 1005.2 |
| 20260506191523 | 6 | 313 | 11.3 | 17.7 | 0.03 | 0.56 | 0.56 | 93 | 1005.1 |
| 20260506191022 | 6 | 317 | 9.7 | 17.7 | 0.03 | 0.56 | 0.56 | 93 | 1005.1 |
| 20260506190525 | 7 | 288 | 8.0 | 12.9 | 0.03 | 0.56 | 0.56 | 93 | 1005.0 |
| 20260506190021 | 7 | 304 | 6.4 | 12.9 | 0.03 | 0.56 | 0.56 | 93 | 1004.9 |
| 20260506185521 | 7 | 296 | 4.8 | 12.9 | 0.03 | 0.56 | 0.56 | 93 | 1004.8 |
| 20260506185022 | 7 | 291 | 6.4 | 14.5 | 0.03 | 0.56 | 0.56 | 93 | 1004.8 |
| 20260506184521 | 7 | 281 | 6.4 | 12.9 | 0.00 | 0.53 | 0.53 | 93 | 1004.8 |
| 20260506184021 | 7 | 265 | 6.4 | 12.9 | 0.00 | 0.53 | 0.53 | 93 | 1004.9 |
| 20260506183521 | 6 | 287 | 4.8 | 14.5 | 0.00 | 0.53 | 0.53 | 93 | 1004.7 |
| 20260506183021 | 6 | 288 | 3.2 | 14.5 | 0.00 | 0.53 | 0.53 | 93 | 1004.7 |
| 20260506182520 | 6 | 308 | 4.8 | 11.3 | 0.00 | 0.53 | 0.53 | 93 | 1004.7 |
| 20260506182020 | 6 | 305 | 1.6 | 14.5 | 0.00 | 0.53 | 0.53 | 93 | 1004.7 |
| 20260506181521 | 6 | 320 | 9.7 | 16.1 | 0.00 | 0.53 | 0.53 | 93 | 1004.6 |
| 20260506181020 | 6 | 276 | 8.0 | 16.1 | 0.00 | 0.53 | 0.53 | 93 | 1004.7 |
| 20260506180520 | 6 | 280 | 1.6 | 12.9 | 0.00 | 0.53 | 0.53 | 93 | 1004.8 |
| 20260506180020 | 6 | 300 | 4.8 | 14.5 | 0.00 | 0.53 | 0.53 | 93 | 1004.5 |
| 20260506175520 | 6 | 309 | 8.0 | 14.5 | 0.00 | 0.53 | 0.53 | 93 | 1004.6 |
| 20260506175018 | 6 | 295 | 4.8 | 9.7 | 0.03 | 0.53 | 0.53 | 93 | 1004.6 |
| 20260506174519 | 6 | 288 | 4.8 | 11.3 | 0.03 | 0.53 | 0.53 | 93 | 1004.5 |
| 20260506174018 | 6 | 296 | 1.6 | 8.0 | 0.03 | 0.53 | 0.53 | 93 | 1004.4 |
| 20260506173518 | 6 | 302 | 1.6 | 8.0 | 0.03 | 0.53 | 0.53 | 93 | 1004.4 |
| 20260506173022 | 6 | 301 | 1.6 | 6.4 | 0.03 | 0.53 | 0.53 | 93 | 1004.4 |
| 20260506172518 | 6 | 306 | 1.6 | 9.7 | 0.03 | 0.53 | 0.53 | 93 | 1004.5 |
| 20260506172017 | 6 | 300 | 4.8 | 9.7 | 0.03 | 0.53 | 0.53 | 93 | 1004.5 |
| 20260506171518 | 6 | 305 | 4.8 | 8.0 | 0.03 | 0.53 | 0.53 | 93 | 1004.6 |
| 20260506171021 | 6 | 295 | 3.2 | 6.4 | 0.05 | 0.53 | 0.53 | 93 | 1004.6 |
| 20260506170518 | 6 | 289 | 3.2 | 6.4 | 0.05 | 0.53 | 0.53 | 93 | 1004.5 |
| 20260506170016 | 6 | 288 | 3.2 | 6.4 | 0.08 | 0.53 | 0.53 | 93 | 1004.7 |
| 20260506165516 | 6 | 298 | 3.2 | 8.0 | 0.10 | 0.53 | 0.53 | 93 | 1004.6 |
| 20260506165017 | 6 | 299 | 3.2 | 8.0 | 0.08 | 0.51 | 0.51 | 93 | 1004.6 |
| 20260506164516 | 6 | 321 | 4.8 | 12.9 | 0.08 | 0.51 | 0.51 | 93 | 1004.5 |
| 20260506164015 | 6 | 292 | 4.8 | 12.9 | 0.08 | 0.51 | 0.51 | 93 | 1004.6 |
| 20260506163516 | 6 | 298 | 6.4 | 17.7 | 0.10 | 0.51 | 0.51 | 93 | 1004.7 |
| 20260506163017 | 6 | 304 | 9.7 | 17.7 | 0.10 | 0.51 | 0.51 | 93 | 1004.7 |
| 20260506162514 | 6 | 331 | 9.7 | 16.1 | 0.13 | 0.51 | 0.51 | 93 | 1004.7 |
| 20260506162013 | 6 | 304 | 8.0 | 17.7 | 0.13 | 0.51 | 0.51 | 93 | 1004.7 |
| 20260506161513 | 7 | 300 | 9.7 | 16.1 | 0.13 | 0.51 | 0.51 | 93 | 1004.8 |
| 20260506161011 | 7 | 289 | 3.2 | 6.4 | 0.10 | 0.48 | 0.48 | 93 | 1004.6 |
| 20260506160511 | 7 | 306 | 0.0 | 11.3 | 0.08 | 0.46 | 0.46 | 93 | 1004.4 |
| 20260506160015 | 7 | 304 | 6.4 | 11.3 | 0.08 | 0.46 | 0.46 | 93 | 1004.6 |
| 20260506155514 | 7 | 328 | 4.8 | 17.7 | 0.05 | 0.43 | 0.43 | 93 | 1004.6 |
| 20260506155009 | 7 | 310 | 9.7 | 17.7 | 0.05 | 0.43 | 0.43 | 92 | 1004.6 |
| 20260506154508 | 7 | 332 | 9.7 | 19.3 | 0.05 | 0.43 | 0.43 | 92 | 1004.5 |
| 20260506153507 | 8 | 325 | 12.9 | 19.3 | 0.05 | 0.41 | 0.41 | 92 | 1004.3 |
| 20260506153007 | 9 | 341 | 11.3 | 19.3 | 0.05 | 0.41 | 0.41 | 92 | 1004.4 |
| 20260506152506 | 10 | 302 | 12.9 | 17.7 | 0.03 | 0.38 | 0.38 | 92 | 1004.4 |
| 20260506152005 | 10 | 318 | 9.7 | 14.5 | 0.03 | 0.38 | 0.38 | 93 | 1004.2 |
| 20260506151507 | 11 | 325 | 4.8 | 12.9 | 0.05 | 0.38 | 0.38 | 93 | 1004.1 |
| 20260506151005 | 11 | 309 | 3.2 | 12.9 | 0.05 | 0.38 | 0.38 | 93 | 1004.0 |
| 20260506150504 | 11 | 301 | 4.8 | 8.0 | 0.08 | 0.38 | 0.38 | 93 | 1004.0 |
| 20260506150005 | 11 | 292 | 3.2 | 8.0 | 0.08 | 0.38 | 0.38 | 92 | 1004.1 |
| 20260506145503 | 11 | 299 | 4.8 | 17.7 | 0.10 | 0.38 | 0.38 | 93 | 1004.1 |
| 20260506145004 | 11 | 220 | 3.2 | 17.7 | 0.13 | 0.38 | 0.38 | 93 | 1004.1 |
| 20260506144503 | 11 | 221 | 4.8 | 12.9 | 0.13 | 0.38 | 0.38 | 93 | 1004.1 |
| 20260506144003 | 11 | 209 | 6.4 | 14.5 | 0.13 | 0.36 | 0.36 | 94 | 1004.1 |
| 20260506143600 | 11 | 182 | 6.4 | 14.5 | 0.15 | 0.36 | 0.36 | 94 | 1004.3 |
| 20260506143102 | 11 | 219 | 8.0 | 14.5 | 0.18 | 0.36 | 0.36 | 94 | 1004.3 |
| 20260506142558 | 11 | 225 | 3.2 | 14.5 | 0.18 | 0.36 | 0.36 | 94 | 1004.4 |
| 20260506142057 | 11 | 205 | 4.8 | 14.5 | 0.20 | 0.36 | 0.36 | 94 | 1004.4 |
| 20260506141610 | 11 | 211 | 4.8 | 14.5 | 0.18 | 0.33 | 0.33 | 94 | 1004.3 |
| 20260506141055 | 10 | 205 | 3.2 | 8.0 | 0.18 | 0.33 | 0.33 | 94 | 1004.4 |
| 20260506140555 | 10 | 239 | 0.0 | 1.6 | 0.15 | 0.30 | 0.30 | 93 | 1004.4 |
| 20260506140053 | 10 | 319 | 0.0 | 3.2 | 0.15 | 0.30 | 0.30 | 93 | 1004.6 |
| 20260506135552 | 10 | 319 | 1.6 | 4.8 | 0.13 | 0.28 | 0.28 | 93 | 1004.7 |
| 20260506135052 | 10 | 319 | 1.6 | 4.8 | 0.10 | 0.25 | 0.25 | 93 | 1004.7 |
| 20260506134552 | 10 | 319 | 3.2 | 4.8 | 0.10 | 0.25 | 0.25 | 93 | 1004.9 |
| 20260506134052 | 10 | 319 | 1.6 | 6.4 | 0.08 | 0.23 | 0.23 | 93 | 1004.8 |
| 20260506133552 | 10 | 319 | 3.2 | 6.4 | 0.08 | 0.20 | 0.20 | 93 | 1004.8 |
| 20260506133101 | 10 | 313 | 3.2 | 6.4 | 0.05 | 0.18 | 0.18 | 93 | 1004.8 |
| 20260506132551 | 10 | 211 | 0.0 | 6.4 | 0.05 | 0.18 | 0.18 | 93 | 1004.6 |
| 20260506132050 | 10 | 193 | 0.0 | 4.8 | 0.03 | 0.15 | 0.15 | 93 | 1004.6 |
| 20260506131554 | 10 | 125 | 0.0 | 3.2 | 0.03 | 0.15 | 0.15 | 93 | 1004.5 |
| 20260506131050 | 10 | 125 | 1.6 | 3.2 | 0.03 | 0.15 | 0.15 | 93 | 1004.4 |
| 20260506130550 | 10 | 124 | 1.6 | 3.2 | 0.03 | 0.15 | 0.15 | 93 | 1004.3 |
| 20260506130050 | 10 | 125 | 0.0 | 4.8 | 0.03 | 0.15 | 0.15 | 94 | 1004.4 |
| 20260506125548 | 9 | 125 | 0.0 | 4.8 | 0.03 | 0.15 | 0.15 | 93 | 1004.3 |
| 20260506125047 | 9 | 125 | 1.6 | 4.8 | 0.03 | 0.15 | 0.15 | 93 | 1004.2 |
| 20260506124548 | 9 | 126 | 1.6 | 3.2 | 0.03 | 0.15 | 0.15 | 93 | 1004.3 |
| 20260506124047 | 9 | 126 | 1.6 | 3.2 | 0.03 | 0.15 | 0.15 | 93 | 1004.2 |
| 20260506123546 | 9 | 126 | 0.0 | 3.2 | 0.00 | 0.13 | 0.13 | 93 | 1004.4 |
| 20260506123046 | 8 | 126 | 1.6 | 3.2 | 0.00 | 0.13 | 0.13 | 93 | 1004.5 |
| 20260506122543 | 8 | 126 | 0.0 | 4.8 | 0.03 | 0.13 | 0.13 | 93 | 1004.6 |
| 20260506122043 | 8 | 126 | 1.6 | 6.4 | 0.03 | 0.13 | 0.13 | 93 | 1004.5 |
| 20260506121548 | 8 | 126 | 3.2 | 6.4 | 0.03 | 0.13 | 0.13 | 93 | 1004.6 |
| 20260506121041 | 8 | 192 | 3.2 | 4.8 | 0.03 | 0.13 | 0.13 | 93 | 1004.7 |
| 20260506120540 | 8 | 192 | 0.0 | 4.8 | 0.03 | 0.13 | 0.13 | 93 | 1004.7 |
| 20260506120106 | 8 | 194 | 1.6 | 4.8 | 0.03 | 0.13 | 0.13 | 93 | 1004.7 |
| 20260506115539 | 8 | 195 | 3.2 | 4.8 | 0.03 | 0.13 | 0.13 | 93 | 1004.9 |
| 20260506115138 | 8 | 202 | 1.6 | 4.8 | 0.05 | 0.13 | 0.13 | 93 | 1004.9 |
| 20260506114543 | 8 | 215 | 1.6 | 4.8 | 0.05 | 0.13 | 0.13 | 93 | 1005.2 |
| 20260506114037 | 8 | 302 | 0.0 | 3.2 | 0.05 | 0.13 | 0.13 | 93 | 1005.2 |
| 20260506113537 | 8 | 302 | 0.0 | 1.6 | 0.05 | 0.13 | 0.13 | 93 | 1005.3 |
| 20260506113038 | 8 | 302 | 0.0 | 1.6 | 0.05 | 0.13 | 0.13 | 93 | 1005.5 |
| 20260506112538 | 8 | 302 | 0.0 | 1.6 | 0.03 | 0.10 | 0.10 | 93 | 1005.4 |
| 20260506112036 | 8 | 302 | 0.0 | 0.0 | 0.03 | 0.10 | 0.10 | 93 | 1005.4 |
| 20260506111539 | 8 | 302 | 0.0 | 4.8 | 0.03 | 0.10 | 0.10 | 93 | 1005.5 |
| 20260506111036 | 8 | 302 | 1.6 | 4.8 | 0.05 | 0.10 | 0.10 | 93 | 1005.5 |
| 20260506110536 | 8 | 302 | 3.2 | 6.4 | 0.05 | 0.10 | 0.10 | 93 | 1005.6 |
| 20260506110036 | 8 | 301 | 1.6 | 4.8 | 0.05 | 0.10 | 0.10 | 93 | 1005.5 |
| 20260506105538 | 8 | 39 | 0.0 | 3.2 | 0.05 | 0.10 | 0.10 | 93 | 1005.4 |
| 20260506105036 | 8 | 39 | 0.0 | 3.2 | 0.03 | 0.08 | 0.08 | 93 | 1005.3 |
| 20260506104535 | 8 | 40 | 0.0 | 4.8 | 0.03 | 0.08 | 0.08 | 93 | 1005.0 |
| 20260506104035 | 7 | 40 | 1.6 | 8.0 | 0.05 | 0.08 | 0.08 | 93 | 1005.1 |
| 20260506103535 | 7 | 251 | 1.6 | 8.0 | 0.05 | 0.08 | 0.08 | 93 | 1005.2 |
| 20260506103036 | 7 | 325 | 3.2 | 4.8 | 0.05 | 0.08 | 0.08 | 93 | 1005.1 |
| 20260506102535 | 7 | 281 | 1.6 | 4.8 | 0.05 | 0.08 | 0.08 | 93 | 1005.1 |
| 20260506102034 | 7 | 279 | 1.6 | 4.8 | 0.05 | 0.08 | 0.08 | 93 | 1005.1 |
| 20260506101533 | 7 | 287 | 1.6 | 4.8 | 0.05 | 0.08 | 0.08 | 93 | 1005.0 |
| 20260506101033 | 7 | 223 | 0.0 | 0.0 | 0.05 | 0.05 | 0.05 | 93 | 1005.0 |
| 20260506100533 | 7 | 217 | 0.0 | 3.2 | 0.05 | 0.05 | 0.05 | 93 | 1005.0 |
| 20260506100034 | 7 | 217 | 0.0 | 4.8 | 0.05 | 0.05 | 0.05 | 93 | 1005.1 |
| 20260506095533 | 7 | 318 | 0.0 | 4.8 | 0.05 | 0.05 | 0.05 | 93 | 1005.3 |
| 20260506095033 | 7 | 325 | 1.6 | 8.0 | 0.05 | 0.05 | 0.05 | 93 | 1005.0 |
| 20260506094536 | 7 | 205 | 1.6 | 11.3 | 0.05 | 0.05 | 0.05 | 93 | 1005.2 |
| 20260506094032 | 7 | 202 | 6.4 | 11.3 | 0.03 | 0.03 | 0.03 | 92 | 1004.9 |
| 20260506093531 | 7 | 279 | 3.2 | 6.4 | 0.03 | 0.03 | 0.03 | 92 | 1005.5 |
| 20260506093043 | 7 | 314 | 1.6 | 8.0 | 0.03 | 0.03 | 0.03 | 92 | 1005.3 |
| 20260506092530 | 7 | 292 | 1.6 | 6.4 | 0.03 | 0.03 | 0.03 | 92 | 1005.3 |
| 20260506092131 | 7 | 335 | 3.2 | 6.4 | 0.03 | 0.03 | 0.03 | 92 | 1005.2 |
| 20260506091529 | 7 | 338 | 1.6 | 6.4 | 0.03 | 0.03 | 0.03 | 92 | 1005.1 |
| 20260506091029 | 7 | 325 | 3.2 | 4.8 | 0.00 | 0.00 | 0.00 | 92 | 1005.0 |
| 20260506090528 | 7 | 308 | 1.6 | 4.8 | 0.00 | 0.00 | 0.00 | 92 | 1005.1 |
| 20260506090028 | 7 | 307 | 0.0 | 6.4 | 0.00 | 0.00 | 0.00 | 92 | 1005.3 |
| 20260506085527 | 7 | 307 | 3.2 | 6.4 | 0.00 | 0.00 | 0.00 | 92 | 1005.4 |
| 20260506085027 | 7 | 64 | 3.2 | 9.7 | 0.00 | 0.00 | 0.00 | 92 | 1005.3 |
| 20260506084527 | 7 | 103 | 1.6 | 9.7 | 0.00 | 0.00 | 0.00 | 92 | 1005.2 |
| 20260506084027 | 7 | 113 | 1.6 | 6.4 | 0.00 | 0.00 | 0.00 | 92 | 1005.1 |
| 20260506083530 | 7 | 80 | 4.8 | 6.4 | 0.00 | 0.00 | 0.00 | 92 | 1005.0 |
| 20260506083025 | 7 | 85 | 4.8 | 9.7 | 0.00 | 0.00 | 0.00 | 92 | 1005.0 |
| 20260506082524 | 7 | 88 | 4.8 | 9.7 | 0.00 | 0.00 | 0.00 | 92 | 1005.1 |
| 20260506082025 | 7 | 115 | 0.0 | 4.8 | 0.00 | 0.00 | 0.00 | 92 | 1005.2 |
| 20260506081523 | 7 | 115 | 0.0 | 4.8 | 0.00 | 0.00 | 0.00 | 92 | 1005.4 |
| 20260506081023 | 7 | 119 | 1.6 | 8.0 | 0.00 | 0.00 | 0.00 | 92 | 1005.2 |
| 20260506080526 | 7 | 97 | 3.2 | 8.0 | 0.00 | 0.00 | 0.00 | 92 | 1005.0 |
| 20260506073518 | 7 | 302 | 8.0 | 12.9 | 0.00 | 0.00 | 0.00 | 91 | 1006.4 |
| 20260506073017 | 7 | 304 | 0.0 | 1.6 | 0.00 | 0.00 | 0.00 | 91 | 1006.1 |
| 20260506072517 | 7 | 303 | 0.0 | 0.0 | 0.00 | 0.00 | 0.00 | 91 | 1006.0 |
| 20260506072016 | 7 | 303 | 0.0 | 3.2 | 0.00 | 0.00 | 0.00 | 91 | 1006.0 |
| 20260506071517 | 7 | 304 | 0.0 | 3.2 | 0.00 | 0.00 | 0.00 | 91 | 1006.0 |
| 20260506071014 | 7 | 304 | 0.0 | 3.2 | 0.00 | 0.00 | 0.00 | 91 | 1006.3 |